STARLINK-1928, 46758

Orbit data source: Space-Track

STARLINK-1928, 46758 is a payload satellite owned by SpaceX/Seattle (US) in LEO that was launched on Sat, 24 Oct 2020 UTC via an FALCON 9 launch vehicle from the Air Force Eastern Test Range (AFETR). Payload-class satellites include a variety of spacecraft equipped with specific instruments for various scientific and technological missions. These include communications satellites like Starlink; space stations such as the ISS; scientific satellites like the Hubble; Earth observation satellites from companies like Planet Labs, Umbra, and HawkEye 360; GPS; miniature CubeSats for education and research; and military/defense satellites.

Loading next visibility...
Identifier
46758, 2020-074V
Orbit
LEO
Country
Flag of USUS
Related business
Manufacturer
SpaceX/Seattle
Mission
Partially operational Commercial Communications
Bus & Motor
STARLINK, Unknown motor
Mass
260 kg wet, ~248 kg dry
Launch date (UTC)
2020-10-24 (5 years ago)
Launch vehicle
FALCON 9
Launch site
Air Force Eastern Test Range (AFETR)
Object type
Payload
Rocket body
Debris
Shape & HBR
Box + 1 Pan, 10.1 m
Radar Cross Section
13.562 m², Large (>1 m²)

Expand to show TLE details & history
Last TLE update: 21 hours ago

TLE from 21 hours ago
0 STARLINK-1928
1 46758U 20074V   26071.95890809  .00097079  00000-0  87416-3 0  9998
2 46758  53.0436 268.5360 0002873  47.3229 312.8028 15.67442425297710
Epoch: 2026-03-12T23:00Z
TLE epoch observation values (Epoch: 2026-03-12T23:00:49.658Z)
Latitude
-0.00005°
Longitude
112.72773°
Altitude
365.809 km
Speed
7.692 km/s
True Right ascension
17h 54m 08s
True Declination
0° 00' 00"
Sunlit
Object was in daylight at epoch
Visualization orbit readout
Latitude
Unknown
Longitude
Unknown
Altitude
Unknown
Speed
Unknown
Apparent Right ascension
Unknown
Apparent Declination
Unknown
Sunlit
N/A
Visualization observer readout
Local Sidereal Time
00:14:36
Azimuth
Unknown
Elevation
Unknown
Doppler factor
Unknown
Orbital elements
Apogee altitude
368.441 km
Perigee altitude
364.565 km
Semi-major axis
6,744.64 km
Eccentricity
0.00029
Inclination
53.0436°
RAAN
268.536°
Arg. of periapsis
47.3229°
True anomaly
312.77864°
Mean anomaly
312.8028°
Eccentric anomaly
312.79072°
Mean motion
3.91837 °/min
Orbital period
91.88 mins
BSTAR
0.00087416
Loading maneuver chart data...
Computing Atmospheric mass density...

Documentation

Showing up to 5 results
|